{"data":{"norad_id":63264,"epoch":"2026-05-25T03:43:45.238080Z","epoch_age_seconds":64652,"freshness":"FRESH","line1":"1 63264U 25052BG  26145.15538470  .00003041  00000+0  26789-3 0  9998","line2":"2 63264  97.6882  37.9078 0003248  79.4080 280.7508 14.97195939 65246","mean_motion":14.97195939,"eccentricity":0.0003248,"inclination_deg":97.6882,"raan_deg":37.9078,"arg_perigee_deg":79.408,"mean_anomaly_deg":280.7508,"bstar":0.00026789,"rev_number":6524,"period_min":96.179796009986,"perigee_km":573.30653207209,"apogee_km":577.82365695268,"semimajor_km":6953.7020945124,"source":"CELESTRAK","updated_at":"2026-05-25T13:38:13.540020Z"}}